TG5ALY-15 Weather Reports


Display with metric or nautical units.
time (UTC)temp
F
wind
direction
speed
MPH
gust
MPH
rain 1hr
in
rain 24hr
in
rain mn
in
humidity
%
barometer
mb
20260503172804 67 312 13.0 14.0 0.00 0.03 0.03 65 1031.7
20260503170803 67 329 11.0 13.0 0.00 0.03 0.03 59 1032.1
20260503150755 64 342 2.0 2.0 0.00 0.03 0.03 68 1031.3
20260503130754 57 48 4.0 5.0 0.00 0.03 0.03 83 1031.3
20260503110732 57 342 4.0 5.0 0.00 0.03 0.03 91 1030.8
20260503080703 54 108 0.0 0.0 0.00 0.00 0.00 86 1030.4
20260503072700 56 108 2.0 2.0 0.00 0.00 0.00 84 1030.4
20260503070659 55 192 2.0 2.0 0.00 0.00 0.00 85 1030.8
20260503054649 57 192 2.0 2.0 0.00 0.00 0.00 81 1031.7
20260503052645 57 192 2.0 2.0 0.00 0.00 0.00 82 1032.1
20260503050643 57 42 1.0 1.0 0.00 0.00 0.00 82 1032.1
20260503044642 58 162 2.0 2.0 0.00 0.00 0.00 83 1032.6
20260503042642 59 162 2.0 2.0 0.00 0.00 0.00 81 1032.6
20260503040641 59 36 2.0 2.0 0.00 0.00 0.00 82 1032.1
20260503034636 60 36 2.0 2.0 0.00 0.00 0.00 81 1032.1
20260503032632 61 72 2.0 2.0 0.00 0.00 0.00 80 1031.7
20260503030632 61 72 0.0 0.0 0.00 0.00 0.00 78 1031.7
20260503024632 61 12 4.0 5.0 0.00 0.00 0.00 79 1030.8
20260503022631 62 108 0.0 0.0 0.00 0.00 0.00 78 1030.4
20260503020628 62 24 5.0 6.0 0.00 0.00 0.00 77 1030.4
20260503014626 61 301 0.0 0.0 0.00 0.00 0.00 83 1030.8
20260503012622 61 306 2.0 2.0 0.00 0.00 0.00 83 1029.9
20260503010619 62 306 2.0 2.0 0.00 0.00 0.00 83 1029.9
20260503004618 62 300 0.0 0.0 0.00 0.00 0.00 84 1029.2
20260503002613 63 300 2.0 2.0 0.00 0.00 0.00 84 1028.7
20260503000612 65 264 2.0 2.0 0.00 0.00 0.00 71 1028.3
20260502234611 65 72 0.0 0.0 0.00 0.00 0.00 73 1027.4
20260502232608 65 174 6.0 7.0 0.00 0.00 0.00 77 1027.9
20260502230604 65 132 7.0 7.0 0.00 0.00 0.00 76 1027.9
20260502224602 65 138 6.0 6.0 0.00 0.00 0.00 76 1027.4
20260502222558 68 102 5.0 5.0 0.00 0.00 0.00 69 1027.0
20260502220555 69 138 2.0 2.0 0.00 0.00 0.00 69 1027.0
20260502214555 70 96 3.0 4.0 0.00 0.00 0.00 69 1027.0
20260502212552 72 276 3.0 3.0 0.00 0.00 0.00 60 1027.0
20260502210550 75 102 5.0 6.0 0.00 0.00 0.00 43 1026.5
20260502204550 75 78 9.0 10.0 0.00 0.00 0.00 41 1027.0
20260502202549 76 96 7.0 8.0 0.00 0.00 0.00 40 1027.0
20260502200548 74 72 7.0 8.0 0.00 0.00 0.00 42 1027.0
20260502194548 75 90 4.0 4.0 0.00 0.00 0.00 38 1027.4
20260502192545 76 120 5.0 5.0 0.00 0.00 0.00 36 1027.4
20260502190541 76 52 5.0 6.0 0.00 0.00 0.00 35 1027.9
20260502184537 77 336 5.0 6.0 0.00 0.00 0.00 33 1027.9
20260502182533 76 264 4.0 4.0 0.00 0.00 0.00 33 1028.3
20260502180528 77 259 4.0 5.0 0.00 0.00 0.00 30 1028.3